Home   Weather   Wiesloch   Past weeks

Flag for Germany Past Weather in Wiesloch, Baden-Württemberg, Germany — Yesterday and Last 2 Weeks

Now
21 °F

Clear.


Feels Like: 21 °F
Forecast: 21 / 37 °F
Wind: No wind

Location: Karlsruhe - Baden Wurttemberg

Current Time: Dec 5, 2016 at 3:32:52 am

Latest Report: Dec 5, 2016 at 12:20 am


Visibility: 5 mi

Pressure: 30.33 "Hg

Humidity: 100%

Dew Point: 21 °F

Location of WieslochLocation

Past Weather in Wiesloch — Graph

°F

Wiesloch Temperature Yesterday

Maximum temperature yesterday: 37 °F (at 1:50 pm)
Minimum temperature yesterday: 19 °F (at 5:20 am)
Average temperature yesterday: 28 °F

High & Low Weather Summary for the Past Weeks

 TemperatureHumidityPressure
High63 °F (Nov 20, 2:20 pm)100% (Nov 20, 4:50 am)30.60 "Hg (Nov 20, 4:50 am)
Low18 °F (Nov 30, 7:20 am)44% (Nov 20, 11:50 am)29.59 "Hg (Nov 20, 1:20 pm)
Average40 °F86%30.11 "Hg
* Reported Nov 20 12:20 am — Dec 5 12:20 am, Wiesloch, Weather by CustomWeather, © 2016

Note: Actual official high and low records may vary slightly from our data, if they occured in-between our weather recording intervals... More about our weather records

Advertising

Wiesloch Weather History for the Previous 24 Hours

Scroll right to see more
 ConditionsComfort  
Time TempWeatherWind HumidityBarometerVisibility
12:20 am
Mon, Dec 5
21 °FClear.No wind100%30.33 "Hg5 mi
11:50 pm
Sun, Dec 4
23 °FClear.No wind100%30.33 "Hg4 mi
11:20 pm23 °FClear.No wind100%30.33 "Hg4 mi
10:50 pm23 °FLight fog.No wind100%30.33 "HgN/A
10:20 pm23 °FLight fog.No wind100%30.33 "HgN/A
9:50 pm25 °FClear.No wind100%30.33 "Hg10 mi
9:20 pm25 °FClear.No wind100%30.33 "Hg10 mi
8:50 pm27 °FClear.No wind100%30.33 "Hg10 mi
8:20 pm25 °FClear.1 mph100%30.30 "Hg10 mi
7:50 pm27 °FClear.No wind100%30.30 "Hg5 mi
7:20 pm28 °FClear.1 mph93%30.30 "Hg5 mi
6:50 pm28 °FClear.5 mph93%30.30 "Hg10 mi
6:20 pm30 °FClear.3 mph93%30.30 "Hg10 mi
5:50 pm30 °FClear.5 mph93%30.30 "Hg10 mi
5:20 pm32 °FClear.5 mph87%30.30 "Hg10 mi
4:50 pm34 °FPassing clouds.6 mph81%30.30 "HgN/A
4:20 pm36 °FSunny.8 mph81%30.27 "Hg10 mi
3:50 pm36 °FSunny.8 mph81%30.27 "Hg10 mi
3:20 pm37 °FSunny.9 mph75%30.30 "Hg10 mi
2:50 pm37 °FSunny.8 mph75%30.30 "Hg10 mi
2:20 pm37 °FSunny.9 mph75%30.30 "Hg10 mi
1:50 pm37 °FSunny.8 mph70%30.30 "Hg10 mi
1:20 pm36 °FSunny.8 mph75%30.30 "Hg10 mi
12:50 pm36 °FPassing clouds.8 mph75%30.30 "HgN/A
12:20 pm34 °FSunny.7 mph81%30.30 "Hg10 mi
11:50 am32 °FSunny.7 mph87%30.30 "Hg10 mi
11:20 am32 °FSunny.7 mph87%30.30 "Hg10 mi
10:50 am30 °FSunny.7 mph93%30.33 "Hg10 mi
10:20 am28 °FSunny.6 mph93%30.30 "Hg10 mi
9:50 am28 °FSunny.5 mph93%30.30 "Hg10 mi
9:20 am25 °FSunny.3 mph100%30.30 "Hg10 mi
8:50 am23 °FSunny.5 mph100%30.30 "Hg10 mi
8:20 am23 °FSunny.3 mph100%30.30 "Hg10 mi
7:50 am23 °FClear.5 mph100%30.30 "Hg10 mi
6:50 am21 °FClear.3 mph100%30.27 "Hg10 mi
6:20 am19 °FClear.2 mph100%30.27 "Hg10 mi
5:50 am21 °FClear.2 mph100%30.27 "Hg10 mi
5:20 am19 °FClear.2 mph100%30.27 "Hg10 mi
Weather by CustomWeather, © 2016

See weather overviewHow to use our weather pages